{"data":{"norad_id":63583,"intl_designator":"2025-076Q","name":"STARLINK-33817","alt_names":[],"object_type":"PAYLOAD","status":"ACTIVE","operator":null,"country":"US","launch_date":"2025-04-14","launch_site_code":"AFETR","launch_vehicle":null,"mission":null,"orbit_class":"UNKNOWN","rcs_meters":null,"size_class":null,"mass_kg":null,"dimensions":null,"purposes":["comms"],"wikipedia_slug":null,"has_3d_model":false,"image_url":null,"decayed_at":null,"tle_current":{"epoch":"2026-05-24T23:46:46.305408Z","epoch_age_seconds":66041,"freshness":"FRESH","line1":"1 63583U 25076Q   26144.99081372  .00011875  00000+0  44022-3 0  9997","line2":"2 63583  42.9982 250.4407 0001086 269.0638  91.0089 15.27589470 63499","mean_motion":15.2758947,"eccentricity":0.0001086,"inclination_deg":42.9982,"raan_deg":250.4407,"arg_perigee_deg":269.0638,"mean_anomaly_deg":91.0089,"bstar":0.00044022,"rev_number":6349,"period_min":94.266164324895,"perigee_km":482.27561786881,"apogee_km":483.76586132985,"semimajor_km":6861.1577395993,"source":"CELESTRAK","updated_at":"2026-05-25T13:38:20.048482Z"}}}